Skip Page Navigation
NASA JPL Caltech
NASA Logo - Jet Propulsion Laboratory + View the NASA Portal
+ Center for Near-Earth Object Studies
JPL Home Earth Solar System Stars & Galaxies Technology
JPL Solar System Dynamics
BODIES ORBITS EPHEMERIDES TOOLS PHYSICAL DATA DISCOVERY FAQ SITE MAP
IMPORTANT: The SSD Announcement email list is now available. Major changes are coming in the near future, including possible hostname and/or URL changes. To be notified of such changes, subscribe to this email list.

Please visit this page for more details.


JPL Small-Body Database Browser
Search: [ help ]  
154333 (2002 VW97)
Classification: Main-belt Asteroid          SPK-ID: 2154333
Ephemeris | Orbit Diagram | Orbital Elements | Mission Design | Physical Parameters | Discovery Circumstances ]

[ show orbit diagram ]
Orbital Elements at Epoch 2459000.5 (2020-May-31.0) TDB
Reference: JPL 15 (heliocentric ecliptic J2000)
 Element Value Uncertainty (1-sigma)   Units 
e .2441064855096569 5.0378e-08  
a 2.224683474190298 8.7254e-09 au
q 1.681623809934291 1.1294e-07 au
i 1.775581094095374 4.6154e-06 deg
node 301.6745812207343 0.00016291 deg
peri 28.04819131940079 0.00016318 deg
M 163.7989921436894 9.2512e-06 deg
tp 2458449.045742055690
(2018-Nov-26.54574206)
3.0012e-05 TDB
period 1211.994837463961
3.32
7.1303e-06
1.952e-08
d
yr
n .2970309681791072 1.7475e-09 deg/d
Q 2.767743138446305 1.0855e-08 au
  Orbit Determination Parameters
   # obs. used (total)      372  
   data-arc span      7872 days (21.55 yr)  
   first obs. used      1998-06-17  
   last obs. used      2020-01-05  
   planetary ephem.      DE431  
   SB-pert. ephem.      SB431-N16  
   condition code      0  
   norm. resid. RMS      .62891  
   source      ORB  
   producer      Otto Matic  
   solution date      2020-Jan-29 20:03:22  

Additional Information
 Earth MOID = .67085 au 
 Jupiter MOID = 2.59275 au 
 T_jup = 3.606 
[ show covariance matrix ]

Ephemeris | Orbit Diagram | Orbital Elements | Mission Design | Physical Parameters | Discovery Circumstances ]

Physical Parameter Table
Parameter Symbol Value Units Sigma Reference Notes
absolute magnitude H 17.3   n/a MPO432985  

154333 (2002 VW97)          Discovered 2002-Nov-12 by LINEAR at Socorro
Reference: 20070402/Numbers.arcLast Updated: 2007-04-04

Alternate Designations
 2002 VW97 = 1998 MF 
Ephemeris | Orbit Diagram | Orbital Elements | Mission Design | Physical Parameters | Discovery Circumstances ]
ABOUT SSD CREDITS/AWARDS PRIVACY/COPYRIGHT GLOSSARY LINKS
FirstGov 2020-Feb-19 16:35 UT
(server date/time)  
NASA Home Page
Site Manager:   Ryan S. Park
Webmaster  Alan B. Chamberlin